Погода в Ньюкасле

Австралия     32°55′16″S   151°45′08″E
темп.,
°C
ветер,
м/с
пор.,
м/с
влажн.,
%
обл.,
%
осадки,
мм/ч
давл.,
гПа
погр.,
м
26 февраля, пт
пт2623:00+22ссз458949 0.5 1011107
02:00+20ссз45890 0.0 1009137
05:00+19сз58830 0.0 1008257
08:00+20зюз12730 0.0 1010171
11:00+24ююв33600 0.0 1011473
14:00+23юв56760 0.0 1009381
17:00+23вюв677418 0.0 1009567
20:00+23вюв6782100 0.0 1012737
27 февраля, сб
сб2723:00+22вюв6883100 0.2 1014697
02:00+21юв7886100 0.3 1014613
05:00+21юв6786100 0.9 1013573
08:00+21вюв4682100 0.1 1015585
11:00+22в3477100 0.2 1015665
14:00+22св4582100 0.1 1014492
17:00+23всв568298 0.1 1011520
20:00+22всв688723 0.1 1012446
28 февраля, вс
вс2823:00+22ссв599012 0.1 1013406
02:00+21с35902 0.0 1011250
05:00+20сз12932 0.0 101188
08:00+21юз34893 0.0 1013314
11:00+23ююз438130 0.0 1012413
14:00+23юв348346 0.0 1011238
17:00+24в458224 0.0 1009347
20:00+24всв56880 0.0 1010227
1 марта, пн
пн123:00+23всв34910 0.0 1012163
02:00+23в339026 0.2 101181
05:00+22с119259 0.2 101055
08:00+22з229273 0.0 1011111
11:00+24вюв117556 0.0 1011275
14:00+25в55710 0.0 1008233
17:00+24св798117 0.0 1006181
20:00+24св458023 0.0 100794
2 марта, вт
вт223:00+25с687342 0.0 1008108
02:00+22ююз12148828 0.0 1007555
05:00+21ю10128248 0.1 1008936
08:00+21ю81082100 0.4 1011847
11:00+19ю91179100 0.8 1012941
14:00+19ю91073100 0.1 10131017
17:00+19ю8974100 0.1 10121001
20:00+19ю7973100 0.2 10141071